This is the latest recevied weather packets stored in our database for station/object SV1JSO-13. If no packets are shown the sender has not sent any weather packets the latest 10 day(s).
| Time | Temp. | Humidity | Pressure | Rain* | Wind** | Luminosity | Snow |
|---|---|---|---|---|---|---|---|
| 1787835900 | 35° C | 29% | 1008.6 hPa | 0 mm | - | 550 W/m² | - |
| 1787835600 | 35° C | 30% | 1008.6 hPa | 0 mm | - | 558 W/m² | - |
| 1787835300 | 35° C | 29% | 1008.7 hPa | 0 mm | - | 577 W/m² | - |
| 1787835000 | 35° C | 29% | 1008.6 hPa | 0 mm | - | 585 W/m² | - |
| 1787834700 | 35° C | 30% | 1008.6 hPa | 0 mm | - | 602 W/m² | - |
| 1787834400 | 35° C | 29% | 1008.6 hPa | 0 mm | - | 615 W/m² | - |
| 1787834100 | 35.56° C | 30% | 1008.8 hPa | 0 mm | - | 620 W/m² | - |
| 1787833800 | 35.56° C | 30% | 1008.7 hPa | 0 mm | - | 632 W/m² | - |
| 1787833500 | 35° C | 30% | 1008.8 hPa | 0 mm | - | 637 W/m² | - |
| 1787833200 | 35.56° C | 29% | 1008.8 hPa | 0 mm | - | 647 W/m² | - |
| 1787832900 | 35.56° C | 30% | 1008.9 hPa | 0 mm | - | 647 W/m² | - |
| 1787832600 | 35° C | 30% | 1008.9 hPa | 0 mm | - | 667 W/m² | - |
| 1787832300 | 34.44° C | 30% | 1009 hPa | 0 mm | - | 674 W/m² | - |
| 1787832000 | 35° C | 30% | 1009 hPa | 0 mm | - | 687 W/m² | - |
| 1787831700 | 35° C | 30% | 1009.1 hPa | 0 mm | - | 689 W/m² | - |
| 1787831400 | 35° C | 30% | 1008.9 hPa | 0 mm | - | 702 W/m² | - |
| 1787831100 | 35.56° C | 28% | 1009.3 hPa | 0 mm | - | 706 W/m² | - |
| 1787830800 | 35.56° C | 28% | 1009.2 hPa | 0 mm | - | 713 W/m² | - |
| 1787830500 | 35° C | 29% | 1009.3 hPa | 0 mm | - | 720 W/m² | - |
| 1787830208 | 35.56° C | 29% | 1009.1 hPa | 0 mm | - | 723 W/m² | - |
| 1787829900 | 35° C | 30% | 1009.2 hPa | 0 mm | - | 724 W/m² | - |
| 1787829600 | 34.44° C | 30% | 1009.1 hPa | 0 mm | - | 728 W/m² | - |
| 1787829301 | 35° C | 29% | 1009.2 hPa | 0 mm | - | 735 W/m² | - |
| 1787829000 | 35° C | 29% | 1009.2 hPa | 0 mm | - | 736 W/m² | - |
| 1787828700 | 35° C | 29% | 1009.2 hPa | 0 mm | - | 739 W/m² | - |
* Rain latest hour (hover to see other rain measurements)
** Current wind speed in m/s (hover to see current wind gust speed)